CAPE
0 0 0 0 0 0 0 0 0 0 0 0 0 0 0 0 0 0 73 473 528 868 1299 1457 1859 2173 2109 1938 1964 1995 1884 1736 1265 880 531 500 360 586 622 169 173 371 621 88 15 20 7 57 12
0 0 0 0 0 0 0 0 0 0 0 0 0 0 0 0 46 243 578 500 630 1057 1184 1124 1795 2103 2206 2177 1947 1715 1918 1818 1462 589 957 502 280 791 957 577 585 585 556 296 34 29 20 23 2
0 0 0 0 0 0 0 0 0 0 0 0 0 0 0 0 207 225 92 513 836 1016 990 1024 1700 1825 1990 2133 1885 1752 1755 1718 1547 1447 1512 1174 663 1092 1018 934 881 670 305 66 93 50 45 0 0
0 0 0 0 0 0 0 0 0 0 0 0 0 0 0 0 0 5 292 544 846 887 842 1294 1681 1703 1677 1906 2137 1986 1673 1414 1433 1409 1057 1326 1340 1235 890 830 681 313 107 42 43 45 1 0 0
0 0 0 0 0 0 0 0 0 0 0 0 0 0 0 0 0 0 25 720 755 828 841 1336 1771 1786 1619 1515 1775 2085 2040 1899 1676 1467 1199 1079 1159 998 820 751 501 329 105 18 27 6 0 0 0
0 0 0 0 0 0 0 0 0 0 0 0 0 0 0 0 0 0 1 318 760 912 1188 1352 1567 1705 1741 1568 1333 1649 2052 2076 1881 1743 1508 1238 1265 960 861 424 333 38 3 7 4 0 0 0 0
0 0 0 0 0 0 0 0 0 0 0 0 0 0 0 0 0 0 0 0 188 740 763 883 1290 1400 1484 1589 1610 1201 1749 1949 1800 1614 1535 1062 703 794 869 452 186 1 2 0 0 0 0 0 0
0 0 0 0 0 0 0 0 0 0 0 0 0 0 0 0 0 0 0 0 0 4 126 156 432 619 685 874 1233 1242 1125 1587 1506 1244 1146 779 529 473 706 278 208 152 2 0 0 0 0 0 0
0 0 0 0 0 0 0 0 0 0 0 0 0 0 0 0 0 0 0 0 0 0 1 1 20 99 145 80 304 654 1119 1093 1034 943 951 472 246 272 165 134 128 80 4 9 0 0 0 0 0
0 0 0 0 0 0 0 0 0 0 0 0 0 0 0 0 0 0 0 0 0 0 0 0 1 0 1 0 2 80 274 318 316 349 258 85 72 81 185 51 75 93 76 80 41 14 0 0 0
0 0 0 0 0 0 0 0 0 0 0 0 0 0 0 0 0 0 0 0 0 0 0 0 0 0 0 0 0 1 38 64 84 83 37 30 30 5 9 1 3 43 38 6 36 39 0 0 0
0 0 0 0 0 0 0 0 0 0 0 0 0 0 0 0 0 0 0 0 0 0 0 0 0 0 0 0 0 0 10 68 119 71 52 6 0 0 0 0 0 0 3 3 0 0 0 0 0
0 0 0 0 0 0 0 0 0 0 0 0 0 0 0 0 0 0 0 0 0 0 0 0 0 0 0 0 0 0 0 0 49 117 94 24 2 0 0 0 0 0 0 0 0 0 0 0 0
0 0 0 0 0 0 0 0 0 0 0 0 0 0 0 0 0 0 0 0 0 0 0 0 0 0 0 0 0 0 0 0 0 14 92 63 32 12 0 0 1 0 0 0 0 0 0 0 0
0 0 0 0 0 0 0 0 0 0 0 0 0 0 0 0 0 0 0 0 0 0 0 0 0 0 0 0 0 0 0 0 0 2 56 68 49 16 1 0 1 0 0 0 0 0 0 0 0
0 0 0 0 0 0 0 0 0 0 0 0 0 0 0 0 0 0 0 0 0 0 0 0 0 0 0 0 0 0 0 0 1 50 36 63 85 73 32 10 11 0 0 0 0 0 0 0 0
0 0 0 0 0 0 0 0 0 0 0 0 0 0 0 0 0 0 0 0 0 0 0 0 0 0 0 0 0 0 0 0 0 32 46 68 95 96 55 33 11 1 0 0 0 0 0 0 0
0 0 0 0 0 0 0 0 0 0 0 0 0 0 0 0 0 0 0 0 0 0 0 0 0 0 0 0 0 0 0 0 0 0 44 51 57 103 75 44 5 0 0 0 3 0 0 0 0
0 0 0 0 0 0 0 0 0 0 0 0 0 0 0 0 0 0 0 0 0 0 0 0 0 0 1 2 0 1 3 0 1 0 20 55 38 37 14 12 1 1 1 1 0 9 0 0 0
0 0 0 0 0 0 0 0 0 0 0 0 0 0 0 0 0 0 0 0 0 0 0 0 17 44 46 38 22 3 24 0 0 0 11 68 44 42 5 0 0 1 1 8 5 14 23 0 0
0 0 0 0 0 0 0 0 0 0 0 0 0 0 0 0 0 0 0 0 0 0 0 0 39 103 113 127 80 53 34 4 2 1 5 45 60 33 0 0 0 0 4 4 15 19 31 24 6
0 0 0 1 6 4 0 0 0 0 0 0 0 0 0 0 0 0 0 0 0 0 0 36 93 155 104 107 103 72 39 1 4 4 0 9 32 21 0 0 0 0 1 20 47 59 55 60 42
0 0 0 0 9 1 0 1 0 0 0 0 0 0 0 0 0 0 0 0 1 30 48 111 161 152 109 86 106 51 1 0 0 1 2 1 0 7 4 0 0 0 2 18 65 55 39 59 85
0 0 0 0 18 1 0 1 0 4 7 2 0 0 0 0 0 0 0 49 140 80 145 147 171 154 84 71 48 33 16 1 1 3 5 1 6 1 22 43 78 40 40 29 35 47 32 46 39
0 12 0 0 0 0 5 14 0 7 3 4 12 22 14 9 3 1 50 83 104 95 109 117 130 148 118 82 58 34 9 0 2 0 24 1 1 1 1 1 1 1 1 2 5 13 23 17 23
2 10 1 0 0 0 1 0 0 8 3 9 14 9 1 0 3 10 4 20 34 65 70 143 88 135 130 159 101 32 32 1 6 2 16 2 0 1 1 1 1 2 4 14 15 6 1 1 8
5 26 7 7 1 1 0 0 1 0 2 3 4 5 1 1 7 5 4 2 2 1 10 43 12 2 13 37 28 2 3 0 1 2 1 2 0 1 3 7 22 20 30 30 20 18 9 2 1
1 7 28 9 0 0 0 0 0 0 5 3 16 9 3 1 1 3 4 2 2 1 1 1 1 2 1 0 0 0 1 2 15 18 10 24 14 11 3 5 12 20 26 8 0 0 0 1 1
11 20 23 20 0 0 0 1 5 4 10 10 13 3 2 1 1 0 1 2 1 0 0 0 2 2 0 0 0 0 0 0 0 0 0 0 1 1 1 1 1 1 0 0 1 1 0 1 0
0 0 2 0 0 0 0 1 9 9 11 8 1 0 0 0 0 0 0 0 0 0 0 0 0 0 0 0 0 0 0 0 0 0 0 0 0 0 0 0 0 0 0 0 0 1 1 2 3
CIN
0 0 0 0 0 0 0 0 0 0 0 0 0 0 0 0 0 0 -354 -280 -257 -174 -78 -44 -5 0 0 0 0 0 0 0 0 -1 -8 -15 -31 -5 -1 -72 -105 -69 -20 -211 0 0 0 -256 -1
0 0 0 0 0 0 0 0 0 0 0 0 0 0 0 0 -105 -187 -146 -236 -220 -138 -81 -58 0 0 -1 0 0 0 0 0 0 -3 -2 -10 -49 -1 0 -6 -13 -18 -32 -94 -101 -31 -1 -82 0
0 0 0 0 0 0 0 0 0 0 0 0 0 0 0 0 -105 -177 -342 -185 -154 -136 -116 -80 0 0 -1 0 0 0 0 0 -1 0 -1 0 -4 0 0 -1 -2 -10 -72 -101 -176 -215 -220 0 0
0 0 0 0 0 0 0 0 0 0 0 0 0 0 0 0 0 -129 -204 -153 -111 -92 -125 -35 0 0 0 0 0 0 0 0 0 0 -2 0 0 0 -2 -6 -12 -52 -124 -239 -215 -196 0 0 0
0 0 0 0 0 0 0 0 0 0 0 0 0 0 0 0 0 0 -138 -106 -94 -62 -37 -2 0 0 0 0 0 0 0 0 0 0 0 0 0 -3 0 -8 -34 -48 -130 -239 -253 0 0 0 0
0 0 0 0 0 0 0 0 0 0 0 0 0 0 0 0 0 0 0 -93 -83 -55 -14 -3 -2 0 0 0 0 0 0 0 0 0 0 -1 0 -2 0 -14 -41 -168 0 -7 0 0 0 0 0
0 0 0 0 0 0 0 0 0 0 0 0 0 0 0 0 0 0 0 0 -85 -58 -51 -36 -5 -2 0 0 0 -1 0 0 0 0 0 -3 -5 -3 0 -3 -62 0 0 0 0 0 0 0 0
0 0 0 0 0 0 0 0 0 0 0 0 0 0 0 0 0 0 0 0 0 -74 -125 -126 -68 -24 -14 -9 -2 -1 -2 -1 -1 -2 -1 -4 -5 -6 0 -8 -43 -61 0 0 0 0 0 0 0
0 0 0 0 0 0 0 0 0 0 0 0 0 0 0 0 0 0 0 0 0 0 0 0 -183 -134 -124 -151 -103 -22 -2 -4 -4 -4 -3 -15 -28 -23 -44 -54 -70 -108 -58 -51 0 0 0 0 0
0 0 0 0 0 0 0 0 0 0 0 0 0 0 0 0 0 0 0 0 0 0 0 0 0 0 -98 0 -23 -152 -107 -95 -61 -31 -46 -80 -82 -70 -24 -112 -108 -82 -106 -100 -127 -18 0 0 0
0 0 0 0 0 0 0 0 0 0 0 0 0 0 0 0 0 0 0 0 0 0 -3 0 0 0 0 0 0 -15 -154 -128 -143 -194 -179 -81 -58 -55 -49 -33 -11 -106 -134 -46 -79 -36 0 0 0
0 0 0 0 0 0 0 0 0 0 0 0 0 0 0 0 0 0 0 0 0 0 0 0 0 0 0 0 0 0 -134 -126 -188 -119 -98 -125 0 0 0 0 0 0 -43 -88 0 0 0 0 0
0 0 0 0 0 0 0 0 0 0 0 0 0 0 0 0 0 0 0 0 0 0 0 0 0 0 0 0 0 0 0 -19 -152 -102 -121 -144 -57 0 0 0 0 0 0 0 0 0 0 0 0
0 0 0 0 0 0 0 0 0 0 0 0 0 0 0 0 0 0 0 0 0 0 0 0 0 0 0 0 0 0 0 0 0 -120 -108 -117 -168 -113 0 0 -35 0 0 0 -55 0 0 0 0
0 0 0 0 0 0 0 0 0 0 0 0 0 0 0 0 0 0 0 0 0 0 0 0 0 0 0 0 0 0 0 0 0 -131 -114 -107 -134 -160 -158 -1 -32 0 0 0 0 0 0 0 0
0 0 0 0 0 0 0 0 0 0 0 0 0 0 0 0 0 0 0 0 0 0 0 0 0 0 0 0 0 0 0 0 -91 -125 -150 -119 -90 -110 -111 -175 -156 -4 0 0 0 0 0 0 0
0 0 0 0 0 0 0 0 0 0 0 0 0 0 0 0 0 0 0 0 0 0 0 0 0 0 0 0 0 0 0 0 0 -120 -114 -106 -108 -91 -85 -121 -164 -46 0 0 0 0 0 0 0
0 0 0 0 0 0 0 0 0 0 0 0 0 0 0 0 0 0 0 0 0 0 0 0 0 0 0 0 0 0 0 0 0 0 -100 -100 -93 -70 -51 -50 -101 0 0 0 -108 0 0 0 0
0 0 0 0 0 0 0 0 0 0 0 0 0 0 0 0 0 0 0 0 0 0 0 0 0 0 0 0 0 0 -1 0 0 0 -125 -68 -84 -56 -77 -73 0 0 0 -20 0 -216 -1 0 0
0 -4 0 0 0 0 0 0 0 0 0 0 0 0 0 0 0 0 0 0 0 0 0 0 -159 -174 -165 -141 -119 -8 -95 -13 -1 0 -87 -70 -66 -50 -60 0 0 0 -2 -26 -86 -161 -203 0 0
0 0 0 0 0 0 0 0 0 0 0 0 0 0 0 0 0 0 0 0 0 0 0 0 -128 -119 -128 -126 -129 -86 -95 0 -1 0 0 -47 -12 -26 0 0 0 0 -3 -35 -47 -72 -123 -188 -211
0 0 0 -1 -2 -2 -3 0 0 0 0 0 0 0 0 0 0 0 0 0 0 0 0 -156 -110 -80 -154 -150 -101 -91 -107 0 -14 -4 0 -58 -3 -11 0 -33 0 0 -76 -35 -57 -105 -130 -155 -133
0 0 0 0 -1 -1 -1 0 0 0 0 0 0 0 0 0 0 0 0 0 -35 -173 -162 -147 -109 -88 -134 -130 -70 -69 -6 0 0 -22 -28 -36 -36 -27 -54 0 -3 0 -29 -79 -69 -177 -206 -217 -156
0 0 -1 0 0 0 0 0 0 0 0 0 0 0 0 0 0 0 0 -130 -134 -218 -140 -120 -99 -92 -141 -137 -85 -70 -120 -15 -28 -11 -31 -11 -78 -12 -12 -12 -3 -21 -2 -27 -77 -192 -214 -203 -190
0 0 0 0 0 0 0 0 0 0 0 -2 -1 -6 -1 0 0 0 -42 -81 -116 -151 -161 -120 -91 -75 -76 -71 -45 -47 -69 0 -40 -13 -11 0 0 -27 0 0 0 0 -37 -51 -129 -159 -155 -143 -120
-4 0 0 0 0 0 0 0 0 0 0 0 -9 -3 0 0 0 0 0 -69 -110 -140 -149 -92 -85 -64 -47 -5 0 -18 -39 -73 -23 -28 -21 -34 -11 -1 -50 -19 -49 -52 -69 -91 -100 -113 -136 -73 -143
0 0 0 -1 0 0 0 0 0 0 0 0 0 0 0 0 0 0 0 0 0 0 -111 -70 -103 -93 -36 0 -2 -8 0 0 -3 0 -1 -1 0 0 -30 -18 -25 -48 -60 -91 -110 -131 -151 -150 -54
-1 -1 0 0 0 0 0 0 0 0 0 0 0 0 -7 0 0 0 0 0 0 0 0 0 0 0 0 0 0 0 0 -9 -10 -11 -8 -3 -7 -10 -21 -25 -23 -50 -50 -57 -57 0 0 -26 -82
0 0 0 0 0 0 0 0 0 0 0 0 0 0 0 0 0 0 0 0 0 0 0 0 0 0 0 0 0 0 0 0 0 0 0 0 0 0 0 0 0 0 0 0 0 -35 -2 -32 0
0 0 -1 0 0 0 0 0 0 0 0 0 -1 0 0 0 0 0 0 0 0 0 0 0 0 0 0 0 0 0 0 0 0 0 0 0 0 0 0 0 0 0 0 0 0 0 0 0 0
Wind_Speed
5 4 2 5 6 5 3 6 1 2 3 0 5 3 3 3 4 6 4 7 4 11 7 11 13 12 16 15 16 14 14 14 14 14 15 15 17 18 17 17 16 14 16 18 17 15 15 15 15
2 1 5 3 6 2 6 3 6 3 2 7 2 1 1 5 3 8 3 3 6 11 8 8 13 12 13 14 14 14 14 14 13 14 14 15 16 17 17 16 16 15 16 16 16 16 14 13 11
1 4 5 5 4 6 5 5 4 3 5 4 4 1 1 4 6 3 5 5 6 7 7 8 14 11 10 13 14 14 12 12 12 13 14 14 15 15 14 18 16 14 12 15 14 15 14 12 10
3 5 5 5 6 6 4 3 2 3 4 6 4 3 4 9 8 9 7 5 6 3 6 10 15 15 13 12 13 14 14 13 11 11 12 14 14 14 16 15 15 14 12 15 15 13 13 11 10
5 3 4 1 4 5 3 3 1 2 3 3 6 5 5 5 10 11 11 5 6 5 2 6 14 13 13 13 13 13 15 14 13 12 12 15 14 15 16 16 16 13 13 14 14 13 11 11 10
5 3 4 3 5 5 5 5 1 2 1 5 2 5 5 2 16 15 12 6 6 8 7 5 9 11 11 12 11 11 11 14 14 13 13 14 13 13 17 17 17 16 15 14 13 13 13 11 10
6 4 4 4 3 4 4 2 2 3 2 3 2 2 5 8 12 10 9 9 2 5 8 5 4 5 7 8 10 9 10 11 13 12 13 12 11 12 17 17 17 17 15 14 13 14 14 12 10
5 5 4 4 4 6 3 5 3 1 2 7 1 4 4 4 10 10 6 6 7 4 2 6 5 5 4 3 7 8 9 8 11 10 9 10 10 13 16 15 16 16 15 13 12 12 13 12 10
2 4 3 5 6 3 3 5 5 3 3 2 4 2 4 8 7 9 8 6 5 4 6 3 6 4 7 6 5 6 8 8 7 8 8 7 4 8 9 9 12 15 15 13 13 12 10 9 9
4 4 8 2 2 2 3 1 3 4 3 2 5 8 6 9 8 8 7 7 5 4 3 4 3 2 6 4 5 4 5 4 4 3 5 4 6 6 9 8 10 13 14 13 13 12 9 7 3
1 4 2 2 3 3 4 6 2 2 6 7 6 5 8 9 14 8 7 6 4 5 2 2 2 3 2 4 3 2 2 3 3 5 4 4 4 5 6 5 6 5 8 4 6 5 3 5 4
1 2 2 4 4 5 5 5 7 9 6 9 14 10 5 8 9 12 9 8 7 6 6 4 3 3 3 0 2 3 3 3 4 5 5 4 2 5 6 5 5 5 4 5 4 3 4 4 4
1 3 5 5 9 6 7 10 9 9 20 13 14 12 11 10 11 10 11 7 8 7 6 7 5 4 4 4 3 2 1 1 0 4 9 7 4 5 6 5 4 4 4 5 4 4 4 4 4
1 4 7 7 7 5 7 7 2 10 4 9 8 11 9 10 12 10 9 10 8 7 8 7 9 8 5 4 4 3 2 2 1 1 3 8 9 7 6 6 6 4 5 4 4 4 4 4 4
3 6 7 2 2 4 4 7 10 15 3 10 12 12 12 10 10 13 12 11 9 7 6 8 11 9 8 7 5 4 3 3 3 3 4 7 7 9 12 7 6 6 5 5 4 3 2 1 3
4 3 5 2 1 3 4 8 8 6 5 10 12 15 12 10 13 13 13 12 10 8 8 8 8 10 10 9 5 4 4 4 4 5 4 7 9 9 9 8 8 6 7 7 6 4 3 3 3
5 2 2 8 1 3 3 11 7 7 9 17 19 16 14 13 8 10 12 12 12 9 9 7 9 10 10 7 4 4 4 4 4 4 5 8 7 7 9 7 7 8 7 7 6 3 3 3 3
3 4 5 6 6 2 7 24 20 20 12 16 18 16 14 10 14 11 12 12 11 9 8 7 7 9 9 5 4 3 4 5 3 5 6 9 7 9 7 5 4 5 3 4 5 3 2 3 4
3 8 13 13 11 9 12 21 21 20 11 13 16 15 13 12 13 7 10 11 8 8 8 9 8 9 8 7 8 5 7 7 7 6 8 10 9 9 9 7 5 4 5 3 3 2 4 4 2
6 9 10 11 4 3 12 21 22 19 13 9 11 12 11 8 7 9 8 12 12 11 9 10 11 9 9 7 4 3 3 5 5 5 9 11 13 12 9 8 7 7 5 5 6 5 2 3 4
5 6 6 10 13 8 10 11 5 3 4 5 6 7 7 9 11 9 7 10 9 9 9 10 13 12 12 10 4 4 3 2 3 5 6 8 10 10 11 11 9 6 5 5 7 7 8 4 3
4 7 11 12 8 5 5 9 5 6 10 6 9 7 9 9 10 9 8 8 9 10 9 11 12 13 13 7 8 10 5 5 3 4 5 6 9 9 7 8 8 7 6 9 11 9 6 5 4
8 2 7 9 13 11 7 5 6 5 7 14 20 11 10 10 9 10 8 8 8 7 8 11 11 10 9 12 9 8 6 4 2 2 5 5 6 7 10 10 10 10 8 9 10 8 8 6 4
5 7 8 5 4 4 1 5 4 8 15 17 14 10 10 7 6 7 7 6 8 6 9 9 11 12 8 8 9 10 10 8 5 4 4 3 3 4 9 9 9 9 8 10 11 6 6 7 5
2 4 5 6 1 6 2 4 3 12 19 9 5 6 7 8 12 7 5 5 6 7 9 9 11 10 10 8 8 12 11 8 7 7 7 8 5 3 3 5 5 4 4 5 4 4 4 5 5
2 1 1 4 3 6 1 4 3 13 17 11 6 8 12 15 17 10 10 5 3 2 8 9 9 8 4 6 4 4 14 7 5 7 3 5 6 5 4 4 4 5 5 5 5 4 3 2 4
2 3 1 3 3 3 4 2 2 17 19 15 16 14 14 16 13 15 14 9 10 10 12 10 10 7 5 6 5 8 7 8 6 6 5 3 5 4 4 4 4 4 3 3 3 3 3 3 5
5 1 2 2 4 4 2 2 6 14 15 15 15 14 15 12 16 12 13 16 11 12 11 14 11 10 8 9 10 8 8 7 5 5 5 4 3 3 4 4 5 5 4 5 3 3 4 7 7
2 2 4 2 1 2 4 2 4 8 9 10 13 12 10 9 11 15 16 15 15 14 13 11 11 9 12 13 14 11 12 11 11 10 9 9 8 8 7 7 3 0 2 3 4 5 5 8 8
5 4 3 2 2 1 1 3 3 6 5 7 9 8 8 9 11 11 11 13 14 13 14 12 10 15 15 13 12 11 11 10 11 10 9 7 9 8 8 8 8 7 7 6 6 6 5 5 6
Wind_Direction
347 350 67 45 66 60 246 253 266 224 158 116 252 272 241 274 196 216 313 178 144 143 155 153 158 163 160 160 152 149 149 149 149 153 154 152 151 150 153 146 146 146 129 128 122 125 117 110 112
350 344 45 86 90 96 259 248 219 234 309 300 289 307 110 282 285 302 345 188 155 145 147 155 162 163 162 156 156 157 156 155 156 161 158 159 160 162 158 150 147 134 129 127 127 123 124 115 115
142 46 80 102 136 194 209 218 224 303 323 351 6 30 259 295 338 294 317 158 144 144 148 156 160 163 162 151 160 162 166 164 166 171 165 163 167 169 154 160 144 128 129 121 133 127 123 121 112
38 16 36 104 210 260 199 163 103 8 10 19 337 330 344 92 337 325 298 144 136 129 136 161 163 165 169 165 162 167 172 173 175 182 173 170 172 166 149 145 129 125 133 131 137 135 132 125 113
38 56 71 74 259 273 252 246 107 54 293 317 345 303 301 19 336 358 341 134 138 110 88 166 165 171 170 171 174 171 174 177 177 181 181 180 184 165 149 136 124 130 140 147 147 146 141 128 122
54 93 86 221 245 277 274 237 56 122 255 309 31 330 272 357 7 348 353 301 148 150 139 170 172 178 176 177 177 182 180 179 179 179 185 184 184 171 151 142 139 148 156 159 158 154 146 136 128
112 97 188 175 217 287 258 320 196 152 140 274 287 279 281 359 341 335 6 1 294 186 161 163 167 175 183 177 183 184 192 189 180 184 184 188 187 170 158 151 153 159 163 164 163 160 153 146 137
98 90 134 225 195 254 13 346 342 74 234 311 258 241 281 308 328 341 352 20 6 327 193 144 151 142 143 172 187 180 189 195 175 184 184 176 170 167 164 158 163 163 166 164 164 166 161 153 148
111 76 180 212 165 246 35 26 322 302 256 348 297 268 304 310 328 11 357 353 360 350 325 299 162 157 148 156 157 162 185 179 181 186 176 159 160 166 164 163 168 165 166 167 167 167 164 157 152
90 126 208 215 213 254 304 153 337 336 307 285 299 280 306 328 354 348 344 341 325 315 324 343 323 237 146 136 154 166 162 150 154 168 179 156 158 161 161 163 170 170 169 171 174 170 163 145 127
97 182 208 270 263 16 299 307 244 259 268 212 229 273 305 323 313 312 305 299 289 289 258 232 292 311 311 161 148 167 194 164 135 142 159 182 158 161 163 161 175 177 172 173 173 167 150 161 159
9 265 258 289 349 338 308 305 292 222 252 253 249 260 269 269 275 288 284 275 282 256 241 201 221 258 244 56 187 167 169 161 157 147 149 148 173 180 165 174 173 175 183 185 169 162 171 178 175
77 323 320 297 293 269 243 247 250 270 263 264 271 258 248 235 246 257 262 254 267 259 231 218 191 233 237 187 206 223 256 353 359 168 169 162 176 195 172 165 171 183 171 180 182 170 174 191 203
270 261 269 263 264 257 265 266 175 250 240 267 260 261 240 223 231 247 261 265 238 238 233 211 205 205 212 231 208 196 183 231 262 213 203 208 180 176 190 177 184 187 194 165 172 181 184 216 204
323 325 321 296 291 252 203 267 229 251 270 267 278 268 265 231 223 231 236 246 236 233 222 209 212 201 203 225 227 209 208 208 208 215 214 216 205 202 175 178 187 189 198 166 158 162 171 244 273
24 32 357 316 157 284 123 268 272 281 290 273 274 272 262 256 216 224 233 244 248 232 219 212 211 206 214 212 219 218 197 213 209 197 196 213 218 204 208 179 184 182 194 182 172 163 198 201 238
18 323 333 316 316 277 227 290 264 289 273 279 276 263 263 263 244 222 232 233 249 230 232 214 198 205 210 221 197 212 224 218 225 196 192 206 212 212 216 204 187 166 191 187 174 171 167 199 219
354 350 318 281 300 309 283 276 280 274 267 263 266 260 260 258 255 217 226 234 237 244 238 231 190 200 190 189 197 212 217 238 211 228 205 193 200 200 201 206 174 143 172 193 181 164 179 194 200
283 284 284 278 263 278 263 270 276 277 270 264 260 260 256 258 258 225 227 236 238 244 232 222 198 198 184 194 205 215 225 239 225 216 219 204 187 187 177 171 149 160 167 213 202 168 201 226 155
263 268 271 279 266 215 269 279 283 288 266 256 274 263 260 267 269 263 234 233 235 225 219 214 215 196 196 198 196 189 190 226 230 217 224 202 195 190 179 178 192 167 143 196 222 201 205 225 167
228 239 269 274 294 247 284 282 311 324 314 304 322 292 282 259 271 265 256 237 230 226 212 201 209 210 209 197 166 182 163 178 178 201 213 208 203 199 194 169 162 175 173 206 223 217 202 192 208
287 234 253 281 317 287 61 290 288 331 317 310 303 296 284 275 263 253 258 255 226 226 220 202 196 202 206 171 196 212 201 195 197 182 196 190 201 189 193 185 183 177 186 212 212 201 198 159 202
245 325 265 268 267 285 253 254 268 348 322 315 308 297 276 261 256 255 252 247 244 230 211 198 183 186 189 196 195 203 205 182 166 160 161 186 185 183 194 191 197 193 213 212 226 189 192 186 170
280 304 290 241 244 253 269 203 291 351 315 310 300 295 302 315 291 258 263 265 265 231 187 185 181 193 177 175 195 200 207 189 164 170 164 150 125 186 200 195 197 204 210 216 224 198 183 201 208
168 278 315 356 299 239 208 257 293 327 321 304 335 0 14 14 1 329 307 297 259 218 190 186 187 180 183 190 213 213 209 199 180 178 184 156 139 138 149 147 147 153 171 184 173 180 185 199 211
297 217 265 281 290 293 21 308 317 337 334 20 27 16 33 16 358 18 18 36 48 19 173 141 150 107 151 157 204 221 209 185 191 157 144 154 130 136 138 129 144 148 149 153 170 170 173 195 229
98 219 178 273 233 262 307 326 227 355 351 12 21 33 29 10 349 10 20 35 55 57 55 83 106 100 104 116 129 60 71 102 113 113 124 137 102 160 168 185 180 179 204 181 163 182 211 186 220
227 332 229 213 303 297 334 32 322 346 345 356 36 18 21 355 359 17 28 48 49 48 61 66 60 64 82 84 64 52 45 59 77 96 95 114 124 172 198 198 197 196 213 234 190 203 203 218 228
182 235 211 287 252 303 324 358 348 329 348 2 31 20 14 21 21 12 24 34 36 48 48 63 61 77 68 67 56 53 46 43 54 56 47 44 50 40 37 25 32 198 232 221 212 220 235 245 256
164 208 228 184 192 300 197 4 334 302 346 8 350 2 8 16 22 26 31 33 35 40 40 44 58 58 50 62 57 52 53 48 51 49 47 46 50 42 36 34 40 31 26 22 16 3 352 332 320